Flag for Germany Weather past 2 weeks in Mühlacker, Baden-Württemberg, Germany

Now
66 °F

Broken clouds.


Feels Like: 66 °F
Forecast: 49 / 57 °F
Wind: 2 mph from North

Location: Stuttgart-Echterdingen

Current Time: May 25, 2015 at 12:05:09 PM

Latest Report: May 25, 2015 at 11:20 AM


Visibility: N/A

Pressure: 29.98 "Hg

Humidity: 60%

Dew point: 52 °F

Location of MühlackerLocation

Historic Weather in Mühlacker — Graph

°F

Mühlacker temperature yesterday

Maximum temperature yesterday: 64 °F (at 11:20 AM)
Minimum temperature yesterday: 55 °F (at 4:50 AM)
Average temperature yesterday: 60 °F

Past Weeks' High & Low Weather Summary

 TemperatureHumidityPressure
High84 °F (May 12, 2:20 PM)100% (May 15, 4:20 AM)30.36 "Hg (May 15, 4:20 AM)
Low37 °F (May 22, 5:50 AM)25% (May 18, 6:20 PM)29.74 "Hg (May 18, 6:20 PM)
Average58 °F67%30.08 "Hg
* Reported May 10 10:20 AM — May 25 10:50 AM, Mühlacker, Weather by CustomWeather, © 2015

Note: Actual official high and low records may vary slightly from our data, if they occured in-between our weather recording intervals... More about our weather records

Advertising

Mühlacker weather history for previous 24 hours

 ConditionsComfort  
Time TempWeatherWind HumidityBarometerVisibility
10:50 AM
Mon, May 25
64 °FBroken clouds.2 mph64%29.98 "HgN/A
10:20 AM61 °FPartly sunny.2 mph68%29.98 "HgN/A
9:50 AM61 °FPartly sunny.2 mph63%29.98 "HgN/A
9:20 AM59 °FPartly sunny.2 mph68%30.01 "HgN/A
8:50 AM59 °FPartly sunny.1 mph68%30.01 "HgN/A
8:20 AM57 °FPartly sunny.2 mph72%29.98 "HgN/A
7:50 AM57 °FBroken clouds.2 mph77%29.98 "HgN/A
7:20 AM55 °FPartly sunny.2 mph77%30.01 "HgN/A
6:50 AM55 °FBroken clouds.1 mph77%30.01 "HgN/A
6:20 AM54 °FClear.2 mph82%30.01 "Hg10 mi
5:50 AM54 °FClear.2 mph88%30.01 "Hg10 mi
5:20 AM55 °FClear.1 mph77%30.01 "Hg10 mi
4:50 AM55 °FClear.2 mph77%30.01 "Hg10 mi
4:20 AM55 °FClear.1 mph77%30.01 "Hg10 mi
3:50 AM55 °FClear.1 mph77%30.01 "Hg10 mi
3:20 AM55 °FClear.1 mph82%30.01 "Hg10 mi
2:50 AM55 °FClear.1 mph77%30.01 "Hg10 mi
2:20 AM55 °FClear.1 mph77%30.01 "Hg10 mi
1:50 AM55 °FClear.1 mph82%30.04 "Hg10 mi
1:20 AM55 °FClear.1 mph82%30.04 "Hg10 mi
12:50 AM55 °FClear.2 mph82%30.04 "Hg10 mi
12:20 AM57 °FClear.No wind77%30.04 "Hg10 mi
11:20 PM
Sun, May 24
57 °FClear.1 mph77%30.04 "Hg10 mi
10:50 PM57 °FClear.1 mph77%30.07 "Hg10 mi
10:20 PM59 °FClear.2 mph72%30.07 "Hg10 mi
9:50 PM59 °FSunny.1 mph72%30.04 "Hg10 mi
9:20 PM59 °FSunny.2 mph72%30.04 "Hg10 mi
8:50 PM59 °FSunny.3 mph77%30.04 "Hg10 mi
8:20 PM61 °FSunny.5 mph68%30.04 "Hg10 mi
7:50 PM63 °FSunny.7 mph68%30.04 "Hg10 mi
7:20 PM63 °FSunny.5 mph64%30.04 "Hg10 mi
6:50 PM63 °FPassing clouds.3 mph64%30.04 "HgN/A
6:20 PM63 °FPassing clouds.6 mph64%30.04 "HgN/A
5:50 PM64 °FBroken clouds.7 mph60%30.04 "HgN/A
5:20 PM64 °FBroken clouds.9 mph60%30.07 "HgN/A
4:50 PM64 °FBroken clouds.8 mph56%30.07 "HgN/A
4:20 PM63 °FPartly sunny.9 mph59%30.07 "HgN/A
3:50 PM63 °FBroken clouds.6 mph64%30.07 "HgN/A
3:20 PM63 °FBroken clouds.7 mph64%30.07 "HgN/A
2:50 PM63 °FPartly sunny.6 mph64%30.07 "HgN/A
2:20 PM63 °FPartly sunny.6 mph59%30.07 "HgN/A
1:50 PM63 °FPartly sunny.9 mph59%30.07 "HgN/A
1:20 PM64 °FBroken clouds.9 mph56%30.07 "HgN/A
12:50 PM64 °FBroken clouds.5 mph56%30.07 "HgN/A
12:20 PM64 °FBroken clouds.7 mph60%30.07 "HgN/A
Weather by CustomWeather, © 2015

See weather overviewHow to use our weather pages